Location: Azenweiler
(47.8027°N, 9.4096°E)
Time: 03:30:52
(UTC+00:00)

Cosmos 1626 Rocket - Pass Details

Date: 18 March 2026
Orbit: 596 x 624 km, 82.5° (Epoch: 13 April)

Event Time Altitude Azimuth Distance (km) Brightness Sun altitude
Rises 18:02:57 0° 231° (SW) 2,899 7.8 -6.0°
Reaches altitude 10° 18:05:51 10° 251° (WSW) 1,998 7.4 -6.5°
Maximum altitude 18:08:49 17° 294° (WNW) 1,567 6.9 -7.0°
Drops below altitude 10° 18:11:48 10° 336° (NNW) 2,004 6.6 -7.5°
Sets 18:14:43 0° 356° (N) 2,912 7.2 -8.0°
